User: anonymous   Login
Location: Tucson
(32.2217°N, 110.9265°W)
Time: 06:35:03
(UTC-07:00)
Language:

Vanguard 3 - Orbit

View from above orbital plane
View from above orbital plane
View from above satellite
View from above satellite

Ground track
Ground track

The orbit data is extracted from the following two-line orbital elements,

1 00020U 59007A   21297.90861114  .00000617  00000-0  25749-3 0  9998
2 00020  33.3417 220.3610 1663831   9.9750 353.0028 11.55864948287826
Epoch (UTC): 24 October 2021 21:48:24
Eccentricity: 0.1663831
inclination: 33.3417°
perigee height: 510 km
apogee height: 3259 km
right ascension of ascending node: 220.3610°
argument of perigee: 9.9750°
revolutions per day: 11.55864948
mean anomaly at epoch: 353.0028°
orbit number at epoch: 28782

The dashed part of the orbit path shows where the satellite is in the earth's shadow,  

DLR